This demonstration page uses our WeatherBlox Daily Observations layout. Learn more.

38.88101, -77.10428

Hourly Observations for September 8, 2015

Temp ( °F °C ) Dew Point ( °F °C ) Humidity (%) Winds ( mph kmh ) Pressure ( in mb ) Visibility ( mi km ) Precip ( " mm )
12:52 am 00:52 Mostly Clear 76 24.4 69 20.6 79 79 S 9 15 30.08 1019 10 16.0934 0 0
1:52 am 01:52 Mostly Clear 75 23.9 69 20.6 82 82 S 9 15 30.07 1018 10 16.0934 0 0
2:52 am 02:52 Clear 74 23.3 68 20 82 82 S 8 13 30.07 1018 10 16.0934 0 0
3:52 am 03:52 Mostly Clear 73 22.8 68 20 84 84 SSW 5 7 30.06 1018 10 16.0934 0 0
4:52 am 04:52 Partly Cloudy 73 22.8 68 20 84 84 SSW 6 9 30.06 1018 10 16.0934 0 0
5:52 am 05:52 Mostly Clear 73 22.8 69 20.6 87 87 SSW 6 9 30.06 1018 10 16.0934 0 0
6:52 am 06:52 Mostly Sunny 72 22.2 69 20.6 91 91 SSW 5 7 30.07 1018 10 16.0934 0 0
7:52 am 07:52 Mostly Sunny 75 23.9 70 21.1 84 84 SSW 3 6 30.08 1019 10 16.0934 0 0
8:52 am 08:52 Sunny 78 25.6 71 21.7 79 79 S 5 7 30.07 1018 10 16.0934 0 0
9:52 am 09:52 Sunny 81 27.2 72 22.2 74 74 SSE 7 11 30.07 1018 10 16.0934 0 0
10:52 am 10:52 Mostly Sunny 85 29.4 71 21.7 63 63 S 9 15 30.06 1018 10 16.0934 0 0
11:52 am 11:52 Mostly Sunny 88 31.1 69 20.6 54 54 S 13 20 30.05 1018 10 16.0934 0 0
12:52 pm 12:52 Partly Cloudy 90 32.2 69 20.6 50 50 S 10 17 30.04 1017 10 16.0934 0 0
1:52 pm 13:52 Partly Cloudy 91 32.8 69 20.6 49 49 S 12 19 30.02 1017 10 16.0934 0 0
2:52 pm 14:52 Mostly Sunny 92 33.3 68 20 46 46 S 12 19 30 1016 10 16.0934 0 0
3:52 pm 15:52 Partly Cloudy 92 33.3 67 19.4 44 44 SSE 8 13 29.97 1015 10 16.0934 0 0
4:52 pm 16:52 Mostly Cloudy 91 32.8 68 20 47 47 S 12 19 29.96 1015 10 16.0934 0 0
5:52 pm 17:52 Partly Cloudy 90 32.2 69 20.6 50 50 S 12 19 29.96 1014 10 16.0934 0 0
6:52 pm 18:52 Mostly Sunny 87 30.6 70 21.1 57 57 S 10 17 29.95 1014 10 16.0934 0 0
7:52 pm 19:52 Clear 85 29.4 69 20.6 59 59 S 8 13 29.95 1014 10 16.0934 0 0
8:52 pm 20:52 Clear 83 28.3 71 21.7 67 67 SSE 9 15 29.98 1015 10 16.0934 0 0
9:52 pm 21:52 Clear 81 27.2 72 22.2 74 74 S 12 19 29.99 1016 10 16.0934 0 0
10:52 pm 22:52 Clear 80 26.7 72 22.2 76 76 SSW 10 17 29.98 1015 10 16.0934 0 0
11:52 pm 23:52 Clear 79 26.1 72 22.2 79 79 S 13 20 29.98 1015 10 16.0934 0 0

Powered by AerisWeather